| time (UTC) | temp F | wind direction | speed knots | gust knots | rain 1hr in | rain 24hr in | rain mn in | humidity % | barometer mb |
| 20260904191506 | 64 | 42 | 1.7 | 5.2 | 0.00 | 0.10 | 0.06 | 75 | 1012.5 |
| 20260904191006 | 64 | 35 | 1.7 | 0.0 | 0.00 | 0.10 | 0.06 | 76 | 1012.5 |
| 20260904190507 | 64 | 35 | 1.7 | 5.2 | 0.00 | 0.10 | 0.06 | 77 | 1012.5 |
| 20260904190006 | 63 | 35 | 1.7 | 5.2 | 0.00 | 0.10 | 0.06 | 78 | 1012.5 |
| 20260904185507 | 63 | 110 | 3.5 | 5.2 | 0.00 | 0.10 | 0.06 | 78 | 1012.5 |
| 20260904185007 | 63 | 187 | 0.0 | 5.2 | 0.00 | 0.10 | 0.06 | 79 | 1012.5 |
| 20260904184507 | 62 | 170 | 0.0 | 7.0 | 0.00 | 0.10 | 0.06 | 79 | 1012.5 |
| 20260904184006 | 62 | 107 | 1.7 | 7.0 | 0.00 | 0.10 | 0.06 | 80 | 1012.5 |
| 20260904183507 | 62 | 38 | 1.7 | 7.0 | 0.00 | 0.10 | 0.06 | 81 | 1012.5 |
| 20260904183006 | 62 | 316 | 4.3 | 7.0 | 0.00 | 0.15 | 0.06 | 82 | 1012.5 |
| 20260904182507 | 62 | 48 | 1.7 | 6.1 | 0.00 | 0.20 | 0.06 | 82 | 1011.5 |
| 20260904182006 | 61 | 80 | 2.6 | 6.1 | 0.00 | 0.20 | 0.06 | 82 | 1011.5 |
| 20260904181506 | 61 | 80 | 0.0 | 2.6 | 0.00 | 0.20 | 0.06 | 83 | 1011.5 |
| 20260904181007 | 61 | 68 | 1.7 | 4.3 | 0.00 | 0.20 | 0.06 | 84 | 1011.5 |
| 20260904180507 | 62 | 80 | 0.9 | 5.2 | 0.00 | 0.20 | 0.06 | 84 | 1011.5 |
| 20260904180007 | 62 | 126 | 2.6 | 6.1 | 0.00 | 0.20 | 0.06 | 84 | 1011.5 |
| 20260904175506 | 62 | 127 | 4.3 | 6.1 | 0.00 | 0.20 | 0.06 | 89 | 1011.5 |
| 20260904175007 | 62 | 46 | 2.6 | 6.1 | 0.00 | 0.20 | 0.06 | 89 | 1011.5 |
| 20260904174006 | 61 | 96 | 2.6 | 5.2 | 0.00 | 0.20 | 0.06 | 91 | 1011.5 |
| 20260904173506 | 60 | 115 | 4.3 | 5.2 | 0.00 | 0.20 | 0.06 | 92 | 1011.5 |
| 20260904173006 | 60 | 148 | 0.0 | 6.1 | 0.00 | 0.20 | 0.06 | 93 | 1011.5 |
| 20260904172506 | 60 | 64 | 2.6 | 7.0 | 0.00 | 0.20 | 0.06 | 93 | 1011.5 |
| 20260904172006 | 59 | 119 | 0.0 | 7.0 | 0.00 | 0.20 | 0.06 | 93 | 1011.5 |
| 20260904171007 | 59 | 45 | 1.7 | 5.2 | 0.00 | 0.20 | 0.06 | 95 | 1011.5 |
| 20260904170506 | 58 | 65 | 0.9 | 5.2 | 0.00 | 0.20 | 0.06 | 95 | 1011.5 |
| 20260904165007 | 58 | 110 | 1.7 | 6.1 | 0.00 | 0.20 | 0.06 | 96 | 1010.5 |
| 20260904164506 | 57 | 35 | 2.6 | 6.1 | 0.00 | 0.20 | 0.06 | 96 | 1010.5 |
| 20260904164006 | 56 | 109 | 1.7 | 2.6 | 0.00 | 0.20 | 0.06 | 96 | 1011.5 |
| 20260904163506 | 56 | 117 | 0.0 | 1.7 | 0.00 | 0.20 | 0.06 | 96 | 1011.5 |
| 20260904163006 | 56 | 49 | 0.0 | 4.3 | 0.00 | 0.20 | 0.06 | 96 | 1011.5 |
| 20260904162506 | 56 | 80 | 0.0 | 4.3 | 0.00 | 0.20 | 0.06 | 96 | 1010.5 |
| 20260904161506 | 55 | 80 | 0.0 | 2.6 | 0.00 | 0.20 | 0.06 | 97 | 1010.5 |
| 20260904161007 | 55 | 126 | 0.9 | 2.6 | 0.00 | 0.20 | 0.06 | 97 | 1010.5 |
| 20260904160506 | 54 | 35 | 0.0 | 1.7 | 0.00 | 0.20 | 0.06 | 97 | 1010.5 |
| 20260904160006 | 54 | 86 | 0.0 | 0.0 | 0.00 | 0.20 | 0.06 | 97 | 1010.5 |
| 20260904155507 | 54 | 58 | 0.0 | 4.3 | 0.00 | 0.20 | 0.06 | 97 | 1010.5 |
| 20260904155006 | 54 | 71 | 1.7 | 4.3 | 0.00 | 0.20 | 0.06 | 97 | 1010.5 |
| 20260904154507 | 54 | 35 | 0.0 | 1.7 | 0.00 | 0.20 | 0.06 | 97 | 1010.5 |
| 20260904154006 | 53 | 58 | 0.0 | 4.3 | 0.00 | 0.20 | 0.06 | 97 | 1010.5 |
| 20260904153507 | 53 | 67 | 0.9 | 4.3 | 0.00 | 0.20 | 0.06 | 97 | 1010.5 |
| 20260904152506 | 53 | 113 | 0.9 | 5.2 | 0.00 | 0.20 | 0.06 | 97 | 1010.5 |
| 20260904152006 | 53 | 102 | 0.9 | 5.2 | 0.00 | 0.20 | 0.06 | 97 | 1010.5 |
| 20260904151506 | 53 | 164 | 3.5 | 5.2 | 0.00 | 0.20 | 0.06 | 97 | 1010.5 |
| 20260904151006 | 53 | 205 | 0.0 | 4.3 | 0.00 | 0.20 | 0.06 | 97 | 1010.5 |
| 20260904150506 | 53 | 148 | 0.0 | 0.0 | 0.00 | 0.20 | 0.06 | 97 | 1010.5 |
| 20260904145006 | 52 | 35 | 0.0 | 0.0 | 0.00 | 0.20 | 0.06 | 97 | 1010.5 |
| 20260904144006 | 52 | 35 | 0.0 | 1.7 | 0.00 | 0.20 | 0.06 | 97 | 1010.5 |
| 20260904143506 | 52 | 35 | 0.0 | 1.7 | 0.00 | 0.20 | 0.06 | 97 | 1010.5 |
| 20260904143006 | 52 | 35 | 0.0 | 0.0 | 0.00 | 0.20 | 0.06 | 97 | 1010.5 |
| 20260904142005 | 52 | 35 | 0.0 | 2.6 | 0.00 | 0.24 | 0.06 | 96 | 1010.5 |
| 20260904141006 | 52 | 35 | 0.0 | 0.0 | 0.00 | 0.24 | 0.06 | 97 | 1011.5 |
| 20260904140505 | 52 | 35 | 0.0 | 0.0 | 0.00 | 0.24 | 0.06 | 96 | 1011.5 |
| 20260904140006 | 52 | 35 | 0.0 | 0.0 | 0.00 | 0.24 | 0.06 | 96 | 1011.5 |
| 20260904134506 | 52 | 35 | 0.0 | 0.0 | 0.00 | 0.24 | 0.06 | 96 | 1010.5 |
| 20260904134005 | 52 | 58 | 0.0 | 0.0 | 0.00 | 0.24 | 0.06 | 96 | 1010.5 |
| 20260904133505 | 52 | 35 | 0.0 | 0.0 | 0.00 | 0.24 | 0.06 | 96 | 1010.5 |
| 20260904133006 | 52 | 35 | 0.0 | 0.0 | 0.00 | 0.24 | 0.06 | 96 | 1010.5 |
| 20260904132506 | 52 | 35 | 0.0 | 4.3 | 0.00 | 0.24 | 0.06 | 96 | 1010.5 |
| 20260904132005 | 52 | 35 | 0.9 | 4.3 | 0.00 | 0.24 | 0.06 | 96 | 1010.5 |
| 20260904131506 | 52 | 326 | 0.0 | 2.6 | 0.00 | 0.24 | 0.06 | 96 | 1010.5 |
| 20260904131006 | 52 | 51 | 0.9 | 4.3 | 0.00 | 0.24 | 0.06 | 96 | 1010.5 |
| 20260904130506 | 52 | 147 | 0.9 | 4.3 | 0.00 | 0.24 | 0.06 | 96 | 1010.5 |
| 20260904130005 | 52 | 125 | 0.9 | 2.6 | 0.00 | 0.24 | 0.06 | 95 | 1010.5 |
| 20260904125506 | 52 | 148 | 1.7 | 2.6 | 0.00 | 0.24 | 0.06 | 95 | 1009.5 |
| 20260904125005 | 52 | 282 | 0.0 | 0.0 | 0.00 | 0.24 | 0.06 | 95 | 1009.5 |
| 20260904124506 | 52 | 282 | 0.0 | 0.0 | 0.00 | 0.24 | 0.06 | 95 | 1009.5 |
| 20260904124005 | 52 | 282 | 0.0 | 0.0 | 0.00 | 0.24 | 0.06 | 95 | 1009.5 |
| 20260904123506 | 52 | 282 | 0.0 | 0.0 | 0.00 | 0.24 | 0.06 | 94 | 1009.5 |
| 20260904122505 | 52 | 282 | 0.0 | 0.0 | 0.00 | 0.24 | 0.06 | 94 | 1009.5 |
| 20260904122006 | 52 | 282 | 0.0 | 0.0 | 0.00 | 0.24 | 0.06 | 93 | 1009.5 |
| 20260904121506 | 52 | 282 | 0.0 | 0.0 | 0.00 | 0.24 | 0.06 | 93 | 1009.5 |
| 20260904121006 | 52 | 282 | 0.0 | 1.7 | 0.00 | 0.24 | 0.06 | 93 | 1009.5 |
| 20260904120506 | 52 | 282 | 0.0 | 4.3 | 0.00 | 0.24 | 0.06 | 93 | 1009.5 |
| 20260904120006 | 52 | 305 | 1.7 | 4.3 | 0.00 | 0.24 | 0.06 | 93 | 1009.5 |
| 20260904115506 | 52 | 137 | 0.9 | 4.3 | 0.00 | 0.24 | 0.06 | 93 | 1009.5 |
| 20260904114005 | 52 | 42 | 0.0 | 4.3 | 0.06 | 0.24 | 0.06 | 92 | 1009.5 |
| 20260904113505 | 52 | 192 | 0.0 | 5.2 | 0.06 | 0.24 | 0.06 | 92 | 1009.5 |
| 20260904113006 | 52 | 153 | 0.0 | 5.2 | 0.06 | 0.24 | 0.06 | 92 | 1009.5 |
| 20260904112005 | 53 | 305 | 0.0 | 1.7 | 0.06 | 0.24 | 0.06 | 91 | 1009.5 |
| 20260904111506 | 53 | 305 | 0.0 | 1.7 | 0.06 | 0.24 | 0.06 | 91 | 1009.5 |
| 20260904111006 | 53 | 305 | 0.9 | 5.2 | 0.06 | 0.24 | 0.06 | 91 | 1009.5 |
| 20260904110505 | 53 | 311 | 0.9 | 5.2 | 0.06 | 0.24 | 0.06 | 91 | 1009.5 |
| 20260904110005 | 53 | 100 | 0.9 | 6.1 | 0.06 | 0.24 | 0.06 | 91 | 1009.5 |
| 20260904105506 | 53 | 131 | 0.9 | 8.7 | 0.06 | 0.24 | 0.06 | 91 | 1009.5 |
| 20260904105006 | 53 | 113 | 2.6 | 8.7 | 0.06 | 0.24 | 0.06 | 91 | 1009.5 |
| 20260904104006 | 53 | 305 | 0.0 | 0.0 | 0.00 | 0.19 | 0.00 | 91 | 1009.5 |
| 20260904103506 | 53 | 305 | 0.0 | 0.0 | 0.00 | 0.19 | 0.00 | 91 | 1009.5 |
| 20260904103005 | 53 | 305 | 0.0 | 0.0 | 0.00 | 0.19 | 0.00 | 91 | 1009.5 |
| 20260904102505 | 53 | 305 | 0.0 | 0.0 | 0.00 | 0.19 | 0.00 | 91 | 1009.5 |
| 20260904102006 | 53 | 305 | 0.0 | 0.0 | 0.00 | 0.19 | 0.00 | 91 | 1009.5 |
| 20260904101505 | 53 | 305 | 0.0 | 0.0 | 0.00 | 0.19 | 0.00 | 91 | 1009.5 |
| 20260904101005 | 53 | 305 | 0.0 | 0.0 | 0.00 | 0.19 | 0.00 | 91 | 1009.5 |
| 20260904100505 | 53 | 305 | 0.0 | 0.0 | 0.00 | 0.19 | 0.00 | 91 | 1009.5 |
| 20260904100005 | 53 | 27 | 0.0 | 0.0 | 0.00 | 0.19 | 0.00 | 91 | 1009.5 |
| 20260904095505 | 53 | 215 | 0.0 | 0.0 | 0.00 | 0.19 | 0.00 | 91 | 1008.5 |
| 20260904095006 | 53 | 35 | 0.0 | 0.0 | 0.00 | 0.19 | 0.00 | 92 | 1008.5 |
| 20260904094506 | 53 | 35 | 0.0 | 0.0 | 0.00 | 0.19 | 0.00 | 92 | 1008.5 |
| 20260904094005 | 54 | 35 | 0.0 | 0.0 | 0.00 | 0.19 | 0.00 | 91 | 1008.5 |
| 20260904093506 | 54 | 35 | 0.0 | 1.7 | 0.00 | 0.19 | 0.00 | 91 | 1008.5 |
| 20260904093005 | 54 | 35 | 0.0 | 1.7 | 0.00 | 0.19 | 0.00 | 91 | 1008.5 |
| 20260904092005 | 54 | 35 | 0.0 | 2.6 | 0.00 | 0.19 | 0.00 | 92 | 1008.5 |
| 20260904091505 | 54 | 35 | 0.9 | 2.6 | 0.00 | 0.19 | 0.00 | 92 | 1008.5 |
| 20260904091005 | 54 | 282 | 0.0 | 1.7 | 0.00 | 0.19 | 0.00 | 92 | 1008.5 |
| 20260904090505 | 53 | 282 | 0.0 | 4.3 | 0.00 | 0.19 | 0.00 | 93 | 1008.5 |
| 20260904090006 | 53 | 288 | 0.0 | 4.3 | 0.00 | 0.19 | 0.00 | 93 | 1008.5 |
| 20260904085005 | 53 | 305 | 0.0 | 0.0 | 0.00 | 0.19 | 0.00 | 93 | 1008.5 |
| 20260904084505 | 53 | 305 | 0.0 | 0.0 | 0.00 | 0.19 | 0.00 | 93 | 1008.5 |
| 20260904084005 | 53 | 305 | 0.0 | 0.0 | 0.00 | 0.19 | 0.00 | 93 | 1009.5 |
| 20260904083505 | 54 | 305 | 0.0 | 0.0 | 0.00 | 0.19 | 0.00 | 92 | 1009.5 |
| 20260904083005 | 54 | 305 | 0.0 | 0.0 | 0.00 | 0.19 | 0.00 | 92 | 1009.5 |
| 20260904082005 | 54 | 102 | 0.0 | 0.0 | 0.00 | 0.19 | 0.00 | 92 | 1008.5 |
| 20260904081005 | 55 | 63 | 0.0 | 1.7 | 0.00 | 0.19 | 0.00 | 93 | 1009.5 |
| 20260904080505 | 55 | 176 | 0.0 | 0.0 | 0.00 | 0.19 | 0.00 | 93 | 1009.5 |
| 20260904080005 | 55 | 35 | 0.0 | 0.0 | 0.00 | 0.19 | 0.00 | 93 | 1009.5 |
| 20260904075505 | 54 | 35 | 0.0 | 4.3 | 0.00 | 0.19 | 0.00 | 93 | 1008.5 |
| 20260904074505 | 54 | 99 | 2.6 | 5.2 | 0.00 | 0.23 | 0.00 | 94 | 1008.5 |
| 20260904074005 | 54 | 102 | 0.0 | 1.7 | 0.00 | 0.23 | 0.00 | 94 | 1008.5 |
| 20260904073005 | 54 | 68 | 0.0 | 0.0 | 0.00 | 0.23 | 0.00 | 94 | 1008.5 |
| 20260904072006 | 54 | 91 | 0.0 | 0.0 | 0.00 | 0.23 | 0.00 | 94 | 1008.5 |
| 20260904071505 | 54 | 84 | 0.0 | 0.0 | 0.00 | 0.23 | 0.00 | 94 | 1008.5 |
| 20260904070505 | 54 | 102 | 0.0 | 0.0 | 0.00 | 0.23 | 0.00 | 94 | 1008.5 |
| 20260904070006 | 54 | 102 | 0.0 | 0.0 | 0.00 | 0.23 | 0.00 | 94 | 1008.5 |
| 20260904065505 | 54 | 102 | 0.0 | 0.0 | 0.00 | 0.23 | 0.23 | 93 | 1008.5 |
| 20260904065005 | 54 | 102 | 0.0 | 0.0 | 0.00 | 0.23 | 0.23 | 93 | 1008.5 |
| 20260904064505 | 54 | 102 | 0.0 | 0.0 | 0.00 | 0.23 | 0.23 | 93 | 1008.5 |
| 20260904064005 | 54 | 102 | 0.0 | 0.0 | 0.00 | 0.23 | 0.23 | 93 | 1009.5 |
| 20260904063505 | 55 | 102 | 0.0 | 0.0 | 0.00 | 0.23 | 0.23 | 93 | 1009.5 |
| 20260904062005 | 55 | 102 | 0.0 | 0.0 | 0.00 | 0.23 | 0.23 | 92 | 1008.5 |
| 20260904061504 | 55 | 102 | 0.0 | 0.0 | 0.00 | 0.23 | 0.23 | 92 | 1008.5 |
| 20260904061004 | 55 | 102 | 0.0 | 0.0 | 0.00 | 0.23 | 0.23 | 92 | 1009.5 |
| 20260904055504 | 55 | 102 | 0.0 | 0.0 | 0.00 | 0.23 | 0.23 | 92 | 1009.5 |
| 20260904054505 | 55 | 109 | 0.0 | 0.0 | 0.00 | 0.23 | 0.23 | 92 | 1009.5 |
| 20260904054005 | 55 | 148 | 0.0 | 0.0 | 0.00 | 0.23 | 0.23 | 92 | 1009.5 |
| 20260904053505 | 55 | 148 | 0.0 | 0.0 | 0.00 | 0.23 | 0.23 | 92 | 1009.5 |
| 20260904053005 | 55 | 96 | 0.0 | 0.0 | 0.00 | 0.23 | 0.23 | 91 | 1009.5 |
| 20260904052504 | 55 | 129 | 0.0 | 0.0 | 0.00 | 0.23 | 0.23 | 92 | 1009.5 |
| 20260904052005 | 55 | 165 | 0.0 | 0.0 | 0.00 | 0.23 | 0.23 | 92 | 1009.5 |
| 20260904051505 | 55 | 144 | 0.0 | 0.0 | 0.00 | 0.23 | 0.23 | 91 | 1009.5 |
| 20260904051005 | 55 | 164 | 0.0 | 0.0 | 0.00 | 0.23 | 0.23 | 91 | 1009.5 |
| 20260904050505 | 55 | 148 | 0.0 | 1.7 | 0.00 | 0.23 | 0.23 | 92 | 1009.5 |
| 20260904050005 | 55 | 125 | 0.0 | 2.6 | 0.00 | 0.23 | 0.23 | 92 | 1009.5 |
| 20260904045505 | 55 | 139 | 0.0 | 2.6 | 0.00 | 0.23 | 0.23 | 92 | 1009.5 |
| 20260904045005 | 55 | 170 | 0.0 | 2.6 | 0.00 | 0.23 | 0.23 | 92 | 1009.5 |
| 20260904044505 | 55 | 192 | 0.0 | 0.0 | 0.00 | 0.23 | 0.23 | 92 | 1009.5 |
| 20260904044005 | 55 | 192 | 0.0 | 0.0 | 0.00 | 0.23 | 0.23 | 92 | 1009.5 |
| 20260904043504 | 55 | 192 | 0.0 | 1.7 | 0.00 | 0.23 | 0.23 | 92 | 1009.5 |
| 20260904043005 | 55 | 192 | 0.0 | 1.7 | 0.00 | 0.23 | 0.23 | 93 | 1009.5 |
| 20260904042005 | 55 | 282 | 0.0 | 2.6 | 0.00 | 0.23 | 0.23 | 93 | 1009.5 |
| 20260904041005 | 55 | 282 | 0.0 | 0.0 | 0.00 | 0.23 | 0.23 | 93 | 1009.5 |
| 20260904040505 | 55 | 282 | 0.0 | 1.7 | 0.00 | 0.23 | 0.23 | 93 | 1009.5 |
| 20260904040004 | 55 | 282 | 0.0 | 1.7 | 0.00 | 0.23 | 0.23 | 93 | 1009.5 |
| 20260904035505 | 55 | 35 | 0.0 | 1.7 | 0.00 | 0.23 | 0.23 | 93 | 1009.5 |
| 20260904035005 | 55 | 102 | 0.0 | 1.7 | 0.00 | 0.23 | 0.23 | 93 | 1009.5 |
| 20260904034504 | 55 | 103 | 0.0 | 0.0 | 0.00 | 0.23 | 0.23 | 93 | 1009.5 |
| 20260904033505 | 55 | 131 | 0.0 | 0.0 | 0.00 | 0.23 | 0.23 | 93 | 1008.5 |
| 20260904033004 | 55 | 80 | 0.0 | 0.0 | 0.00 | 0.23 | 0.23 | 93 | 1008.5 |
| 20260904032505 | 55 | 80 | 0.0 | 0.0 | 0.00 | 0.23 | 0.23 | 93 | 1008.5 |
| 20260904032006 | 55 | 80 | 0.0 | 0.0 | 0.00 | 0.23 | 0.23 | 93 | 1008.5 |
| 20260904031504 | 55 | 80 | 0.0 | 0.0 | 0.00 | 0.23 | 0.23 | 93 | 1008.5 |
| 20260904031005 | 55 | 80 | 0.0 | 0.0 | 0.00 | 0.23 | 0.23 | 92 | 1008.5 |
| 20260904030504 | 55 | 80 | 0.0 | 0.0 | 0.00 | 0.23 | 0.23 | 92 | 1008.5 |
| 20260904030005 | 55 | 80 | 0.0 | 0.0 | 0.00 | 0.23 | 0.23 | 92 | 1008.5 |
| 20260904025505 | 55 | 80 | 0.0 | 0.0 | 0.00 | 0.23 | 0.23 | 92 | 1008.5 |
| 20260904025004 | 55 | 80 | 0.0 | 0.0 | 0.00 | 0.23 | 0.23 | 92 | 1008.5 |
| 20260904024505 | 55 | 80 | 0.0 | 1.7 | 0.00 | 0.23 | 0.23 | 92 | 1008.5 |
| 20260904024004 | 55 | 80 | 0.9 | 2.6 | 0.00 | 0.23 | 0.23 | 92 | 1008.5 |
| 20260904023505 | 55 | 95 | 0.9 | 5.2 | 0.00 | 0.23 | 0.23 | 92 | 1008.5 |
| 20260904022007 | 56 | 121 | 1.7 | 5.2 | 0.00 | 0.23 | 0.23 | 92 | 1008.5 |
| 20260904021505 | 56 | 119 | 0.9 | 1.7 | 0.00 | 0.23 | 0.23 | 92 | 1008.5 |
| 20260904021005 | 56 | 125 | 0.9 | 5.2 | 0.00 | 0.23 | 0.23 | 92 | 1008.5 |
| 20260904020004 | 56 | 128 | 0.9 | 5.2 | 0.00 | 0.23 | 0.23 | 92 | 1008.5 |
| 20260904015504 | 56 | 38 | 0.0 | 0.0 | 0.00 | 0.23 | 0.23 | 92 | 1008.5 |
| 20260904015005 | 56 | 43 | 0.0 | 0.0 | 0.00 | 0.23 | 0.23 | 92 | 1008.5 |
| 20260904014504 | 56 | 102 | 0.0 | 0.0 | 0.00 | 0.23 | 0.23 | 92 | 1008.5 |
| 20260904014004 | 56 | 98 | 0.0 | 4.3 | 0.00 | 0.23 | 0.23 | 92 | 1008.5 |
| 20260904013504 | 56 | 102 | 1.7 | 4.3 | 0.00 | 0.23 | 0.23 | 92 | 1008.5 |
| 20260904013005 | 56 | 118 | 1.7 | 5.2 | 0.00 | 0.23 | 0.23 | 92 | 1008.5 |
| 20260904012505 | 56 | 134 | 3.5 | 8.7 | 0.00 | 0.23 | 0.23 | 92 | 1008.5 |
| 20260904012005 | 56 | 125 | 2.6 | 8.7 | 0.00 | 0.23 | 0.23 | 92 | 1008.5 |
| 20260904011504 | 56 | 157 | 2.6 | 7.0 | 0.00 | 0.23 | 0.23 | 92 | 1008.5 |
| 20260904011005 | 56 | 81 | 0.9 | 5.2 | 0.00 | 0.23 | 0.23 | 92 | 1008.5 |
| 20260904010504 | 56 | 124 | 2.6 | 5.2 | 0.00 | 0.23 | 0.23 | 91 | 1008.5 |
| 20260904010004 | 56 | 282 | 0.0 | 0.0 | 0.00 | 0.23 | 0.23 | 91 | 1008.5 |
| 20260904005504 | 56 | 35 | 0.0 | 1.7 | 0.00 | 0.23 | 0.23 | 91 | 1008.5 |
| 20260904005004 | 56 | 192 | 0.0 | 1.7 | 0.00 | 0.23 | 0.23 | 91 | 1008.5 |
| 20260904004504 | 56 | 179 | 0.0 | 1.7 | 0.00 | 0.23 | 0.23 | 91 | 1008.5 |
| 20260904004004 | 56 | 90 | 0.0 | 1.7 | 0.00 | 0.23 | 0.23 | 91 | 1008.5 |
| 20260904003504 | 56 | 208 | 0.0 | 2.6 | 0.00 | 0.23 | 0.23 | 91 | 1008.5 |
| 20260904002504 | 57 | 90 | 1.7 | 5.2 | 0.00 | 0.23 | 0.23 | 92 | 1008.5 |
| 20260904002004 | 57 | 149 | 0.9 | 5.2 | 0.00 | 0.23 | 0.23 | 92 | 1008.5 |
| 20260904001504 | 56 | 193 | 0.9 | 5.2 | 0.05 | 0.23 | 0.23 | 92 | 1008.5 |
| 20260904001004 | 56 | 224 | 0.0 | 2.6 | 0.05 | 0.23 | 0.23 | 91 | 1008.5 |
| 20260904000504 | 56 | 260 | 1.7 | 2.6 | 0.05 | 0.23 | 0.23 | 91 | 1008.5 |
| 20260904000004 | 56 | 238 | 0.0 | 1.7 | 0.05 | 0.23 | 0.23 | 91 | 1008.5 |
| 20260903235504 | 56 | 248 | 0.9 | 4.3 | 0.05 | 0.23 | 0.23 | 90 | 1008.5 |
| 20260903234504 | 55 | 190 | 0.9 | 4.3 | 0.05 | 0.29 | 0.23 | 90 | 1008.5 |
| 20260903234004 | 55 | 260 | 0.9 | 2.6 | 0.05 | 0.34 | 0.23 | 88 | 1008.5 |
| 20260903233504 | 55 | 162 | 0.0 | 5.2 | 0.05 | 0.34 | 0.23 | 88 | 1008.5 |
| 20260903233003 | 55 | 140 | 0.9 | 5.2 | 0.05 | 0.34 | 0.23 | 88 | 1008.5 |
| 20260903232004 | 56 | 274 | 2.6 | 5.2 | 0.05 | 0.38 | 0.23 | 85 | 1009.5 |
| 20260903231504 | 56 | 249 | 1.7 | 5.2 | 0.00 | 0.34 | 0.19 | 84 | 1009.5 |
| 20260903230504 | 57 | 260 | 0.0 | 7.0 | 0.00 | 0.34 | 0.19 | 83 | 1009.5 |
| 20260903230004 | 57 | 233 | 1.7 | 7.0 | 0.00 | 0.34 | 0.19 | 81 | 1009.5 |
| 20260903225504 | 58 | 229 | 0.9 | 7.0 | 0.00 | 0.34 | 0.19 | 80 | 1008.5 |
| 20260903225004 | 59 | 282 | 0.9 | 7.0 | 0.00 | 0.34 | 0.19 | 78 | 1008.5 |
| 20260903224504 | 60 | 260 | 2.6 | 6.1 | 0.00 | 0.34 | 0.19 | 77 | 1008.5 |
| 20260903224004 | 61 | 282 | 0.0 | 6.1 | 0.00 | 0.34 | 0.19 | 77 | 1008.5 |
| 20260903223504 | 61 | 280 | 1.7 | 6.1 | 0.00 | 0.34 | 0.19 | 77 | 1008.5 |
| 20260903222504 | 61 | 258 | 1.7 | 5.2 | 0.00 | 0.34 | 0.19 | 76 | 1008.5 |
| 20260903222003 | 61 | 231 | 0.9 | 5.2 | 0.00 | 0.34 | 0.19 | 76 | 1008.5 |
| 20260903221503 | 61 | 257 | 1.7 | 5.2 | 0.00 | 0.34 | 0.19 | 75 | 1008.5 |
| 20260903220504 | 61 | 246 | 1.7 | 7.0 | 0.00 | 0.34 | 0.19 | 76 | 1008.5 |
| 20260903215504 | 60 | 145 | 2.6 | 11.3 | 0.00 | 0.34 | 0.19 | 75 | 1008.5 |
| 20260903215004 | 60 | 199 | 1.7 | 11.3 | 0.00 | 0.34 | 0.19 | 76 | 1008.5 |
| 20260903214505 | 60 | 145 | 5.2 | 11.3 | 0.00 | 0.34 | 0.19 | 77 | 1008.5 |
| 20260903214004 | 60 | 203 | 2.6 | 6.1 | 0.00 | 0.34 | 0.19 | 77 | 1008.5 |
| 20260903213504 | 60 | 233 | 3.5 | 6.1 | 0.00 | 0.34 | 0.19 | 77 | 1008.5 |
| 20260903212504 | 60 | 207 | 4.3 | 13.9 | 0.00 | 0.34 | 0.19 | 78 | 1009.5 |
| 20260903212004 | 59 | 162 | 6.1 | 13.9 | 0.00 | 0.34 | 0.19 | 78 | 1009.5 |
| 20260903211504 | 59 | 179 | 7.8 | 13.9 | 0.00 | 0.34 | 0.19 | 77 | 1009.5 |
| 20260903211003 | 59 | 194 | 5.2 | 13.9 | 0.00 | 0.34 | 0.19 | 77 | 1008.5 |
| 20260903210504 | 59 | 140 | 6.1 | 13.0 | 0.00 | 0.34 | 0.19 | 77 | 1008.5 |
| 20260903210004 | 59 | 136 | 5.2 | 17.4 | 0.00 | 0.34 | 0.19 | 79 | 1008.5 |
| 20260903205504 | 59 | 161 | 6.1 | 17.4 | 0.00 | 0.34 | 0.19 | 80 | 1008.5 |
| 20260903205004 | 60 | 98 | 6.1 | 18.2 | 0.00 | 0.34 | 0.19 | 81 | 1008.5 |
| 20260903204504 | 59 | 168 | 11.3 | 18.2 | 0.00 | 0.34 | 0.19 | 81 | 1008.5 |
| 20260903203504 | 60 | 195 | 5.2 | 12.2 | 0.00 | 0.34 | 0.19 | 83 | 1008.5 |
| 20260903203004 | 60 | 139 | 5.2 | 13.0 | 0.00 | 0.34 | 0.19 | 84 | 1008.5 |
| 20260903202503 | 60 | 154 | 5.2 | 13.0 | 0.00 | 0.34 | 0.19 | 84 | 1009.5 |
| 20260903202003 | 59 | 156 | 4.3 | 13.0 | 0.00 | 0.38 | 0.19 | 85 | 1009.5 |
| 20260903201507 | 59 | 171 | 5.2 | 13.0 | 0.00 | 0.38 | 0.19 | 84 | 1009.5 |
| 20260903201007 | 59 | 145 | 6.1 | 17.4 | 0.00 | 0.38 | 0.19 | 85 | 1009.5 |
| 20260903195507 | 58 | 208 | 7.8 | 14.8 | 0.00 | 0.43 | 0.19 | 87 | 1008.5 |
| 20260903195007 | 58 | 161 | 7.0 | 26.9 | 0.00 | 0.43 | 0.19 | 87 | 1008.5 |
| 20260903194507 | 58 | 151 | 8.7 | 26.9 | 0.00 | 0.48 | 0.19 | 88 | 1008.5 |
| 20260903194007 | 59 | 173 | 7.0 | 21.7 | 0.00 | 0.48 | 0.19 | 89 | 1008.5 |
| 20260903193006 | 58 | 141 | 9.6 | 21.7 | 0.05 | 0.53 | 0.19 | 91 | 1008.5 |
| 20260903192506 | 58 | 182 | 7.0 | 17.4 | 0.10 | 0.53 | 0.19 | 92 | 1009.5 |
| 20260903192007 | 58 | 171 | 8.7 | 17.4 | 0.10 | 0.53 | 0.19 | 93 | 1009.5 |